WA1TYB-13 Weather Reports


Display with metric or nautical units.
time (UTC)temp
F
wind
direction
speed
MPH
gust
MPH
rain 1hr
in
rain 24hr
in
rain mn
in
humidity
%
barometer
mb
20260504220021 57 4 7.0 11.0 0.00 0.00 0.00 32 1015.9
20260504215517 58 21 4.0 8.0 0.00 0.00 0.00 32 1015.9
20260504215015 57 296 3.0 8.0 0.00 0.00 0.00 33 1016.0
20260504214510 57 23 1.0 3.0 0.00 0.00 0.00 32 1015.9
20260504214006 57 6 4.0 9.0 0.00 0.00 0.00 31 1016.0
20260504213503 58 337 4.0 5.0 0.00 0.00 0.00 34 1016.3
20260504213001 59 12 8.0 10.0 0.00 0.00 0.00 30 1016.1
20260504212456 57 246 5.0 6.0 0.00 0.00 0.00 33 1016.2
20260504211954 57 221 3.0 3.0 0.00 0.00 0.00 30 1016.2
20260504211450 56 310 6.0 7.0 0.00 0.00 0.00 33 1016.5
20260504210948 57 288 2.0 7.0 0.00 0.00 0.00 31 1016.5
20260504210444 56 13 6.0 10.0 0.00 0.00 0.00 32 1016.5
20260504205941 56 1 5.0 6.0 0.00 0.00 0.00 33 1016.5
20260504205439 56 12 5.0 8.0 0.00 0.00 0.00 32 1016.7
20260504204937 57 352 6.0 9.0 0.00 0.00 0.00 30 1016.3
20260504204435 57 24 3.0 13.0 0.00 0.00 0.00 30 1016.7
20260504203934 57 59 6.0 15.0 0.00 0.00 0.00 32 1016.7
20260504203431 56 31 5.0 8.0 0.00 0.00 0.00 32 1016.7
20260504202927 57 305 5.0 6.0 0.00 0.00 0.00 31 1016.9
20260504202424 57 72 4.0 6.0 0.00 0.00 0.00 32 1016.7
20260504201920 56 38 2.0 5.0 0.00 0.00 0.00 35 1016.9
20260504201418 55 164 4.0 7.0 0.00 0.00 0.00 37 1016.8
20260504200915 55 59 5.0 8.0 0.00 0.00 0.00 33 1016.6
20260504200412 56 77 8.0 10.0 0.00 0.00 0.00 33 1016.9
20260504195909 56 322 1.0 2.0 0.00 0.00 0.00 32 1016.6
20260504195404 56 78 3.0 6.0 0.00 0.00 0.00 33 1016.8
20260504194901 55 19 2.0 9.0 0.00 0.00 0.00 33 1017.0
20260504194357 55 325 4.0 5.0 0.00 0.00 0.00 36 1017.0
20260504193853 55 62 2.0 6.0 0.00 0.00 0.00 35 1017.0
20260504193350 55 338 0.0 3.0 0.00 0.00 0.00 38 1017.0
20260504192849 55 327 2.0 6.0 0.00 0.00 0.00 36 1016.9
20260504192347 54 163 2.0 5.0 0.00 0.00 0.00 37 1016.9
20260504191845 54 77 3.0 8.0 0.00 0.00 0.00 37 1016.9
20260504191343 54 105 3.0 8.0 0.00 0.00 0.00 37 1017.1
20260504190838 54 70 4.0 6.0 0.00 0.00 0.00 38 1016.9
20260504190334 54 71 8.0 9.0 0.00 0.00 0.00 38 1017.2
20260504185831 53 65 4.0 6.0 0.00 0.00 0.00 37 1017.2
20260504185327 53 73 8.0 10.0 0.00 0.00 0.00 36 1017.1
20260504184824 53 69 6.0 10.0 0.00 0.00 0.00 37 1017.2
20260504184320 53 61 6.0 13.0 0.00 0.00 0.00 39 1016.9
20260504183815 53 67 5.0 9.0 0.00 0.00 0.00 41 1017.4
20260504183313 53 75 6.0 11.0 0.00 0.00 0.00 40 1017.5
20260504182810 53 65 6.0 8.0 0.00 0.00 0.00 40 1017.2
20260504182308 53 121 5.0 7.0 0.00 0.00 0.00 39 1017.1
20260504181805 53 51 3.0 7.0 0.00 0.00 0.00 41 1017.2
20260504181302 54 350 3.0 6.0 0.00 0.00 0.00 40 1017.2
20260504180801 54 33 3.0 3.0 0.00 0.00 0.00 39 1017.1
20260504180259 54 333 3.0 5.0 0.00 0.00 0.00 41 1017.2
20260504175757 53 306 3.0 3.0 0.00 0.00 0.00 40 1017.2
20260504175253 54 15 3.0 6.0 0.00 0.00 0.00 40 1017.4
20260504174751 54 1 4.0 6.0 0.00 0.00 0.00 40 1017.2
20260504174249 54 13 4.0 5.0 0.00 0.00 0.00 40 1017.1
20260504173745 54 347 3.0 6.0 0.00 0.00 0.00 41 1017.5
20260504173242 54 4 5.0 6.0 0.00 0.00 0.00 39 1017.1
20260504172739 54 324 1.0 6.0 0.00 0.00 0.00 40 1017.2
20260504172236 53 33 0.0 3.0 0.00 0.00 0.00 41 1017.1
20260504171732 54 123 4.0 7.0 0.00 0.00 0.00 40 1017.1
20260504171229 54 119 4.0 6.0 0.00 0.00 0.00 39 1017.5
20260504170726 55 71 5.0 7.0 0.00 0.00 0.00 40 1017.4
20260504170223 54 0 3.0 6.0 0.00 0.00 0.00 42 1017.4
20260504160142 52 287 0.0 3.0 0.00 0.00 0.00 48 1017.8
20260504151109 50 327 3.0 6.0 0.00 0.00 0.00 47 1018.2
20260504150607 49 344 3.0 6.0 0.00 0.00 0.00 48 1018.0
20260504150104 50 286 5.0 6.0 0.00 0.00 0.00 49 1018.0
20260504141032 47 264 0.0 2.0 0.00 0.00 0.00 58 1018.1
20260504140529 46 261 3.0 3.0 0.00 0.00 0.00 56 1018.2
20260504130453 42 191 4.0 5.0 0.00 0.00 0.00 62 1017.5
20260504110340 45 296 1.0 2.0 0.00 0.00 0.00 52 1016.9
20260504100257 46 324 2.0 2.0 0.00 0.00 0.00 48 1016.5
20260504081651 46 281 2.0 2.0 0.00 0.00 0.00 52 1013.4
20260504081147 46 284 2.0 2.0 0.00 0.00 0.00 53 1013.2
20260504080644 46 321 4.0 8.0 0.00 0.00 0.00 53 1013.1
20260504080140 48 312 3.0 6.0 0.00 0.00 0.00 50 1012.7
20260504070108 48 249 1.0 2.0 0.00 0.00 0.00 48 1011.3
20260504050457 55 183 2.0 2.0 0.00 0.00 0.00 29 1011.6
20260504045954 55 187 2.0 3.0 0.00 0.00 0.00 30 1011.4
20260504045449 55 244 0.0 0.0 0.00 0.00 0.00 28 1011.3
20260504044946 56 326 0.0 1.0 0.00 0.00 0.00 27 1011.5
20260504044443 58 298 0.0 1.0 0.00 0.00 0.00 26 1011.3
20260504043941 58 342 2.0 3.0 0.00 0.00 0.00 25 1011.2
20260504043437 57 7 2.0 2.0 0.00 0.00 0.00 27 1011.4
20260504042935 57 68 0.0 3.0 0.00 0.00 0.00 28 1011.4
20260504042431 56 60 1.0 2.0 0.00 0.00 0.00 30 1011.1
20260504041928 56 55 0.0 0.0 0.00 0.00 0.00 31 1011.2
20260504041424 57 37 0.0 1.0 0.00 0.00 0.00 30 1011.3
20260504040920 57 13 1.0 1.0 0.00 0.00 0.00 30 1011.2
20260504040418 56 2 0.0 1.0 0.00 0.00 0.00 30 1011.0
20260504035914 56 331 0.0 0.0 0.00 0.00 0.00 30 1011.0
20260504035412 58 310 0.0 0.0 0.00 0.00 0.00 28 1010.8
20260504034908 59 327 1.0 1.0 0.00 0.00 0.00 27 1011.0
20260504034406 58 325 2.0 3.0 0.00 0.00 0.00 27 1011.0
20260504033903 58 274 0.0 0.0 0.00 0.00 0.00 29 1011.0
20260504033401 61 269 2.0 2.0 0.00 0.00 0.00 27 1010.7
20260504032857 61 312 3.0 3.0 0.00 0.00 0.00 25 1010.6
20260504032354 63 269 4.0 5.0 0.00 0.00 0.00 23 1010.7
20260504031850 64 307 5.0 8.0 0.00 0.00 0.00 22 1010.5
20260504031348 65 317 8.0 13.0 0.00 0.00 0.00 20 1010.4
20260504030844 65 330 8.0 11.0 0.00 0.00 0.00 21 1010.6
20260504030342 64 338 7.0 10.0 0.00 0.00 0.00 22 1010.3
20260504025837 62 352 6.0 9.0 0.00 0.00 0.00 23 1010.4
20260504025335 62 358 6.0 8.0 0.00 0.00 0.00 25 1010.1
20260504024831 62 322 4.0 7.0 0.00 0.00 0.00 25 1010.1
20260504024328 63 17 4.0 6.0 0.00 0.00 0.00 25 1010.2
20260504023824 64 22 4.0 6.0 0.00 0.00 0.00 25 1010.1
20260504023321 64 288 4.0 7.0 0.00 0.00 0.00 24 1010.2
20260504022817 65 354 5.0 8.0 0.00 0.00 0.00 25 1010.2
20260504022314 66 309 5.0 8.0 0.00 0.00 0.00 24 1010.1
20260504021810 66 348 5.0 7.0 0.00 0.00 0.00 23 1010.1
20260504021308 67 329 4.0 7.0 0.00 0.00 0.00 22 1009.8
20260504020805 68 354 5.0 8.0 0.00 0.00 0.00 21 1009.9
20260504020302 68 328 5.0 10.0 0.00 0.00 0.00 19 1010.2
20260504015757 69 309 5.0 8.0 0.00 0.00 0.00 19 1010.1
20260504015254 69 342 5.0 8.0 0.00 0.00 0.00 19 1010.2
20260504014750 69 316 5.0 8.0 0.00 0.00 0.00 19 1010.2
20260504014246 70 305 6.0 7.0 0.00 0.00 0.00 19 1010.1
20260504013744 71 307 5.0 9.0 0.00 0.00 0.00 18 1010.1
20260504013242 71 347 6.0 10.0 0.00 0.00 0.00 17 1009.9
20260504012738 71 316 8.0 11.0 0.00 0.00 0.00 16 1010.2
20260504012236 72 305 8.0 11.0 0.00 0.00 0.00 16 1010.1
20260504011732 72 1 7.0 14.0 0.00 0.00 0.00 18 1010.1
20260504011229 72 317 6.0 15.0 0.00 0.00 0.00 19 1010.3
20260504010726 73 347 9.0 10.0 0.00 0.00 0.00 19 1010.3
20260504010221 73 328 6.0 11.0 0.00 0.00 0.00 18 1010.2
20260504005718 73 327 7.0 14.0 0.00 0.00 0.00 16 1010.1
20260504005215 73 312 7.0 10.0 0.00 0.00 0.00 17 1010.3
20260504004713 73 323 7.0 11.0 0.00 0.00 0.00 18 1010.3
20260504004209 73 306 8.0 11.0 0.00 0.00 0.00 19 1010.4
20260504003707 73 342 8.0 10.0 0.00 0.00 0.00 19 1010.4
20260504003203 73 322 6.0 10.0 0.00 0.00 0.00 18 1010.6
20260504002700 73 355 8.0 13.0 0.00 0.00 0.00 19 1010.6
20260504002157 73 311 11.0 16.0 0.00 0.00 0.00 17 1010.4
20260504001655 74 310 11.0 13.0 0.00 0.00 0.00 17 1010.3
20260504001151 74 303 5.0 13.0 0.00 0.00 0.00 18 1010.7
20260504000648 74 330 9.0 13.0 0.00 0.00 0.00 17 1010.4
20260504000145 74 6 11.0 11.0 0.00 0.00 0.00 15 1010.7
20260503235643 74 350 9.0 14.0 0.00 0.00 0.00 15 1010.6
20260503235140 74 34 10.0 13.0 0.00 0.00 0.00 15 1010.4
20260503234638 74 332 10.0 16.0 0.00 0.00 0.00 15 1010.6
20260503234136 74 338 8.0 10.0 0.00 0.00 0.00 15 1010.5
20260503233632 74 303 8.0 10.0 0.00 0.00 0.00 16 1010.6
20260503233128 74 286 9.0 14.0 0.00 0.00 0.00 16 1010.6
20260503232625 74 321 9.0 11.0 0.00 0.00 0.00 16 1010.6
20260503232123 74 334 9.0 14.0 0.00 0.00 0.00 16 1010.8
20260503231620 74 315 3.0 6.0 0.00 0.00 0.00 16 1011.0
20260503231116 74 329 7.0 11.0 0.00 0.00 0.00 16 1011.0
20260503230614 75 303 10.0 11.0 0.00 0.00 0.00 16 1010.8
20260503230111 75 328 5.0 10.0 0.00 0.00 0.00 17 1011.0
20260503225608 74 312 4.0 6.0 0.00 0.00 0.00 16 1011.4
20260503225108 74 290 7.0 11.0 0.00 0.00 0.00 16 1011.1
20260503224606 74 312 6.0 10.0 0.00 0.00 0.00 15 1011.3
20260503224104 74 320 11.0 18.0 0.00 0.00 0.00 16 1011.2
20260503223601 74 325 8.0 11.0 0.00 0.00 0.00 16 1011.3
20260503223056 75 27 10.0 13.0 0.00 0.00 0.00 17 1011.5
20260503222555 74 333 5.0 10.0 0.00 0.00 0.00 16 1011.5
20260503222052 74 328 7.0 9.0 0.00 0.00 0.00 18 1011.7
20260503221550 74 346 8.0 9.0 0.00 0.00 0.00 21 1011.5
20260503221048 74 301 6.0 7.0 0.00 0.00 0.00 18 1011.6
20260503220543 74 277 7.0 11.0 0.00 0.00 0.00 22 1012.0
20260503220041 74 275 7.0 7.0 0.00 0.00 0.00 20 1012.0